Flag for Poland Weather past 2 weeks in Jastrzębie Zdrój, Poland

Now
30 °F

Fog.


Feels Like: 25 °F
Forecast: 29 / 33 °F
Wind: 5 mph from Southwest

Location: Ostrava / Mosnov

Current Time: Jan 28, 2015 at 5:32:17 AM

Latest Report: Jan 28, 2015 at 4:00 AM


Visibility: 4 mi

Pressure: 30.05 "Hg

Humidity: 89%

Dew point: 27 °F

Location of Jastrzębie ZdrójLocation

Historic Weather in Jastrzębie Zdrój — Graph

°F

Jastrzębie Zdrój temperature yesterday

Maximum temperature yesterday: 33 °F (at 5:00 PM)
Minimum temperature yesterday: 17 °F (at 1:00 AM)
Average temperature yesterday: 29 °F

Past Weeks' High & Low Weather Summary

 TemperatureHumidityPressure
High52 °F (Jan 13, 2:00 PM)98% (Jan 18, 8:00 AM)30.34 "Hg (Jan 18, 8:00 AM)
Low14 °F (Jan 26, 11:00 PM)30% (Jan 13, 2:00 PM)29.75 "Hg (Jan 17, 6:00 AM)
Average36 °F84%30.04 "Hg
* Reported Jan 13 3:00 AM — Jan 28 3:00 AM, Jastrzębie Zdrój, Weather by CustomWeather, © 2014

Note: Actual official high and low records may vary slightly from our data, if they occured in-between our weather recording intervals... More about our weather records

Advertising

Jastrzębie Zdrój weather history for previous 24 hours

 ConditionsComfort  
Time TempWeatherWind HumidityBarometerVisibility
3:00 AM
Jan 28
31 °FFog.5 mph90%30.06 "Hg4 mi
2:00 AM32 °FFog.5 mph89%30.05 "Hg4 mi
1:00 AM33 °FFog.5 mph89%30.05 "Hg4 mi
12:00 AM33 °FFog.3 mph90%30.06 "Hg4 mi
11:00 PM
Jan 27
31 °FFog.3 mph91%30.06 "Hg4 mi
10:00 PM33 °FFog.2 mph89%30.05 "Hg4 mi
9:00 PM32 °FLight snow. Overcast.5 mph90%30.05 "Hg4 mi
8:00 PM32 °FOvercast.3 mph90%30.04 "Hg4 mi
7:00 PM32 °FOvercast.3 mph93%30.03 "Hg4 mi
6:00 PM33 °FLight snow. Overcast.5 mph91%30.02 "Hg2 mi
5:00 PM33 °FOvercast.3 mph88%30.00 "Hg6 mi
4:00 PM33 °FOvercast.6 mph87%29.98 "Hg7 mi
3:00 PM33 °FOvercast.7 mph81%29.96 "Hg7 mi
2:00 PM32 °FOvercast.6 mph81%29.96 "Hg6 mi
1:00 PM31 °FSnow. Overcast.7 mph89%29.96 "Hg1 mi
12:00 PM32 °FLight snow. Overcast.8 mph82%29.95 "Hg3 mi
11:00 AM31 °FLight snow. Overcast.8 mph87%29.96 "Hg2 mi
10:00 AM30 °FSnow. Overcast.8 mph90%29.96 "Hg1 mi
9:00 AM30 °FSnow. Overcast.8 mph90%29.96 "Hg1 mi
8:00 AM29 °FLight snow. Overcast.7 mph91%29.96 "Hg2 mi
7:00 AM29 °FSnow. Overcast.8 mph91%29.96 "Hg1 mi
6:00 AM30 °FLight snow. Overcast.8 mph80%29.96 "Hg9 mi
5:00 AM28 °FPassing clouds.7 mph80%29.97 "Hg9 mi
Weather by CustomWeather, © 2014

See weather overviewHow to use our weather pages